Regional Weather Roundup
Issued by NWS Goodland, KS

Home | Current Version | Previous Version | Graphics & Text | Print | Product List | Glossary On
Versions: 1 2 3 4 5 6 7 8 9 10 11 12 13 14 15 16 17 18 19 20 21 22 23 24 25 26 27 28 29 30 31 32 33 34 35 36 37 38 39 40 41 42 43 44 45 46 47 48 49 50
000
ASUS43 KGLD 270359
RWRGLD

GOODLAND FORECAST AREA HOURLY WEATHER ROUNDUP
NATIONAL WEATHER SERVICE GOODLAND KS
1000 PM MDT THU MAY 26 2016

...OFFICIAL OBSERVATIONS...

CITY           SKY/WX    TMP DP  RH WIND       PRES   REMARKS
GOODLAND KS    NOT AVBL
HILL CITY KS   TSTM      60  56  86 N24G36    29.72F
IMPERIAL NEB   CLOUDY    53  51  93 N14       29.71F
MCCOOK NEB     CLOUDY    55  51  86 N25G37    29.70F
AKRON CO       LGT RAIN  47  45  93 W13       29.88F
BURLINGTON CO  CLOUDY    48  41  76 NW21      29.75R
LIMON CO       CLOUDY    41  40  96 NW20G29   29.85R
$$

...UNOFFICIAL OBSERVATIONS...

CITY           SKY/WX    TMP DP  RH WIND       PRES   REMARKS
GOVE KS          N/A     55  32  41 MISG        N/A
KIT CARSON CO    N/A     47  40  77 MISG        N/A
YUMA CO          N/A     50  48  93 NW13        N/A
$$




USA.gov is the U.S. government's official web portal to all federal, state and local government web resources and services.